Time,TemperatureF,DewpointF,PressureIn,WindDirection,WindDirectionDegrees,WindSpeedMPH,WindSpeedGustMPH,Humidity,HourlyPrecipIn,Conditions,Clouds,dailyrainin,SoftwareType,DateUTC
2013-01-08 00:02:00,31.0,20.0,30.12,SW,233,5.0,7.0,64,-99.99,,,-99.99,,2013-01-08 06:02:00,
2013-01-08 00:12:00,31.0,20.0,30.12,SW,233,5.0,7.0,64,-99.99,,,-99.99,,2013-01-08 06:12:00,
2013-01-08 00:22:00,30.0,20.0,30.12,South,172,6.0,6.0,65,-99.99,,,-99.99,,2013-01-08 06:22:00,
2013-01-08 00:32:00,30.0,20.0,30.12,South,191,7.0,7.0,66,-99.99,,,-99.99,,2013-01-08 06:32:00,
2013-01-08 00:42:00,30.0,20.0,30.12,South,191,7.0,7.0,66,-99.99,,,-99.99,,2013-01-08 06:42:00,
2013-01-08 00:52:00,30.0,20.0,30.12,SSW,197,5.0,5.0,67,-99.99,,,-99.99,,2013-01-08 06:52:00,
2013-01-08 01:02:00,30.0,20.0,30.12,SSW,206,9.0,9.0,67,-99.99,,,-99.99,,2013-01-08 07:02:00,
2013-01-08 01:12:00,30.0,20.0,30.12,SSW,206,9.0,9.0,67,-99.99,,,-99.99,,2013-01-08 07:12:00,
2013-01-08 01:22:00,30.0,20.0,30.12,SSW,199,6.0,8.0,66,-99.99,,,-99.99,,2013-01-08 07:22:00,
2013-01-08 01:32:00,30.0,20.0,30.12,SSW,210,4.0,4.0,65,-99.99,,,-99.99,,2013-01-08 07:32:00,
2013-01-08 01:42:00,30.0,20.0,30.12,SSW,210,4.0,4.0,65,-99.99,,,-99.99,,2013-01-08 07:42:00,
2013-01-08 01:52:00,30.0,20.0,30.12,West,266,4.0,4.0,65,-99.99,,,-99.99,,2013-01-08 07:52:00,
2013-01-08 02:02:00,30.0,20.0,30.12,SW,218,4.0,4.0,65,-99.99,,,-99.99,,2013-01-08 08:02:00,
2013-01-08 02:12:00,30.0,20.0,30.12,SW,218,4.0,4.0,65,-99.99,,,-99.99,,2013-01-08 08:12:00,
2013-01-08 02:22:00,30.0,20.0,30.12,SSW,200,3.0,5.0,65,-99.99,,,-99.99,,2013-01-08 08:22:00,
2013-01-08 02:32:00,30.0,20.0,30.15,SSW,192,4.0,4.0,65,-99.99,,,-99.99,,2013-01-08 08:32:00,
2013-01-08 02:42:00,30.0,20.0,30.15,SSW,192,4.0,4.0,65,-99.99,,,-99.99,,2013-01-08 08:42:00,
2013-01-08 02:52:00,30.0,20.0,30.12,South,191,5.0,6.0,65,-99.99,,,-99.99,,2013-01-08 08:52:00,
2013-01-08 03:02:00,29.0,19.0,30.15,SSW,204,5.0,6.0,67,-99.99,,,-99.99,,2013-01-08 09:02:00,
2013-01-08 03:12:00,29.0,20.0,30.15,South,191,4.0,6.0,68,-99.99,,,-99.99,,2013-01-08 09:12:00,
2013-01-08 03:22:00,29.0,20.0,30.15,South,191,4.0,6.0,68,-99.99,,,-99.99,,2013-01-08 09:22:00,
2013-01-08 03:32:00,29.0,20.0,30.12,South,185,3.0,3.0,69,-99.99,,,-99.99,,2013-01-08 09:32:00,
2013-01-08 03:42:00,29.0,20.0,30.12,South,185,3.0,3.0,69,-99.99,,,-99.99,,2013-01-08 09:42:00,
2013-01-08 03:52:00,28.0,20.0,30.12,SSW,201,3.0,3.0,70,-99.99,,,-99.99,,2013-01-08 09:52:00,
2013-01-08 04:02:00,28.0,20.0,30.12,SSW,199,2.0,3.0,70,-99.99,,,-99.99,,2013-01-08 10:02:00,
2013-01-08 04:12:00,28.0,20.0,30.12,SSW,199,2.0,3.0,70,-99.99,,,-99.99,,2013-01-08 10:12:00,
2013-01-08 04:22:00,28.0,20.0,30.12,SSW,211,3.0,3.0,71,-99.99,,,-99.99,,2013-01-08 10:22:00,
2013-01-08 04:32:00,28.0,20.0,30.12,SSW,194,3.0,4.0,72,-99.99,,,-99.99,,2013-01-08 10:32:00,
2013-01-08 04:42:00,28.0,20.0,30.12,SSW,194,3.0,4.0,72,-99.99,,,-99.99,,2013-01-08 10:42:00,
2013-01-08 04:52:00,28.0,20.0,30.12,SSW,203,3.0,4.0,72,-99.99,,,-99.99,,2013-01-08 10:52:00,
2013-01-08 05:02:00,28.0,20.0,30.12,South,186,3.0,5.0,73,-99.99,,,-99.99,,2013-01-08 11:02:00,
2013-01-08 05:12:00,28.0,20.0,30.12,South,186,3.0,5.0,73,-99.99,,,-99.99,,2013-01-08 11:12:00,
2013-01-08 05:22:00,28.0,20.0,30.12,SSW,208,3.0,3.0,73,-99.99,,,-99.99,,2013-01-08 11:22:00,
2013-01-08 05:32:00,28.0,20.0,30.12,SW,216,3.0,0.0,73,-99.99,,,-99.99,,2013-01-08 11:32:00,
2013-01-08 05:42:00,28.0,20.0,30.12,SW,216,3.0,0.0,73,-99.99,,,-99.99,,2013-01-08 11:42:00,
2013-01-08 05:53:00,28.0,20.0,30.15,SSW,205,2.0,4.0,73,-99.99,,,-99.99,,2013-01-08 11:53:00,
2013-01-08 06:02:00,28.0,20.0,30.15,SSW,196,3.0,3.0,73,-99.99,,,-99.99,,2013-01-08 12:02:00,
2013-01-08 06:12:00,28.0,20.0,30.15,SSW,196,3.0,3.0,73,-99.99,,,-99.99,,2013-01-08 12:12:00,
2013-01-08 06:22:00,28.0,21.0,30.15,SSW,195,3.0,3.0,74,-99.99,,,-99.99,,2013-01-08 12:22:00,
2013-01-08 06:32:00,28.0,21.0,30.15,SSW,197,2.0,6.0,74,-99.99,,,-99.99,,2013-01-08 12:32:00,
2013-01-08 06:42:00,28.0,21.0,30.15,SSW,197,2.0,6.0,74,-99.99,,,-99.99,,2013-01-08 12:42:00,
2013-01-08 06:53:00,28.0,21.0,30.15,SW,214,3.0,3.0,74,-99.99,,,-99.99,,2013-01-08 12:53:00,
2013-01-08 07:03:00,28.0,21.0,30.15,SSW,205,4.0,4.0,74,-99.99,,,-99.99,,2013-01-08 13:03:00,
2013-01-08 07:12:00,28.0,21.0,30.15,SSW,205,4.0,4.0,74,-99.99,,,-99.99,,2013-01-08 13:12:00,
2013-01-08 07:22:00,28.0,20.0,30.15,SW,218,2.0,3.0,73,-99.99,,,-99.99,,2013-01-08 13:22:00,
2013-01-08 07:32:00,28.0,20.0,30.15,SSW,201,3.0,3.0,72,-99.99,,,-99.99,,2013-01-08 13:32:00,
2013-01-08 07:42:00,28.0,20.0,30.15,SSW,201,3.0,3.0,72,-99.99,,,-99.99,,2013-01-08 13:42:00,
2013-01-08 07:52:00,28.0,20.0,30.15,South,188,0.0,3.0,72,-99.99,,,-99.99,,2013-01-08 13:52:00,
2013-01-08 08:02:00,28.0,20.0,30.18,SSW,202,0.0,0.0,72,-99.99,,,-99.99,,2013-01-08 14:02:00,
2013-01-08 08:12:00,28.0,20.0,30.18,SSW,202,0.0,0.0,72,-99.99,,,-99.99,,2013-01-08 14:12:00,
2013-01-08 08:23:00,28.0,20.0,30.18,SSW,194,3.0,4.0,72,-99.99,,,-99.99,,2013-01-08 14:23:00,
2013-01-08 08:33:00,29.0,20.0,30.18,SSW,194,3.0,3.0,70,-99.99,,,-99.99,,2013-01-08 14:33:00,
2013-01-08 08:42:00,29.0,20.0,30.18,SSW,194,3.0,3.0,70,-99.99,,,-99.99,,2013-01-08 14:42:00,
2013-01-08 08:53:00,30.0,20.0,30.18,SW,229,4.0,4.0,66,-99.99,,,-99.99,,2013-01-08 14:53:00,
2013-01-08 09:02:00,30.0,19.0,30.18,SSW,193,4.0,6.0,64,-99.99,,,-99.99,,2013-01-08 15:02:00,
2013-01-08 09:12:00,30.0,19.0,30.18,SSW,193,4.0,6.0,64,-99.99,,,-99.99,,2013-01-08 15:12:00,
2013-01-08 09:22:00,31.0,20.0,30.18,SSW,205,3.0,4.0,63,-99.99,,,-99.99,,2013-01-08 15:22:00,
2013-01-08 09:33:00,32.0,20.0,30.18,SW,224,3.0,4.0,61,-99.99,,,-99.99,,2013-01-08 15:33:00,
2013-01-08 09:42:00,32.0,20.0,30.18,SW,224,3.0,4.0,61,-99.99,,,-99.99,,2013-01-08 15:42:00,
2013-01-08 09:52:00,33.0,21.0,30.18,SW,224,4.0,6.0,60,-99.99,,,-99.99,,2013-01-08 15:52:00,
2013-01-08 10:03:00,34.0,21.0,30.18,SW,230,4.0,5.0,58,-99.99,,,-99.99,,2013-01-08 16:03:00,
2013-01-08 10:12:00,34.0,21.0,30.18,SW,230,4.0,5.0,58,-99.99,,,-99.99,,2013-01-08 16:12:00,
2013-01-08 10:22:00,35.0,21.0,30.18,SSW,194,4.0,4.0,56,-99.99,,,-99.99,,2013-01-08 16:22:00,
2013-01-08 10:33:00,35.0,20.0,30.18,SSW,194,5.0,5.0,53,-99.99,,,-99.99,,2013-01-08 16:33:00,
2013-01-08 10:42:00,35.0,20.0,30.18,SSW,194,5.0,5.0,53,-99.99,,,-99.99,,2013-01-08 16:42:00,
2013-01-08 10:52:00,36.0,21.0,30.18,South,178,4.0,5.0,53,-99.99,,,-99.99,,2013-01-08 16:52:00,
2013-01-08 11:03:00,36.0,19.0,30.18,SSW,196,3.0,5.0,50,-99.99,,,-99.99,,2013-01-08 17:03:00,
2013-01-08 11:12:00,36.0,19.0,30.18,SSW,196,3.0,5.0,50,-99.99,,,-99.99,,2013-01-08 17:12:00,
2013-01-08 11:23:00,37.0,21.0,30.18,SE,146,4.0,4.0,52,-99.99,,,-99.99,,2013-01-08 17:23:00,
2013-01-08 11:33:00,37.0,19.0,30.15,South,188,5.0,6.0,48,-99.99,,,-99.99,,2013-01-08 17:33:00,
2013-01-08 11:43:00,37.0,19.0,30.15,South,188,5.0,6.0,48,-99.99,,,-99.99,,2013-01-08 17:43:00,
2013-01-08 11:53:00,38.0,21.0,30.15,SSE,153,6.0,7.0,49,-99.99,,,-99.99,,2013-01-08 17:53:00,
2013-01-08 12:03:00,38.0,20.0,30.15,SSW,208,5.0,5.0,47,-99.99,,,-99.99,,2013-01-08 18:03:00,
2013-01-08 12:12:00,38.0,20.0,30.15,SSW,208,5.0,5.0,47,-99.99,,,-99.99,,2013-01-08 18:12:00,
2013-01-08 12:23:00,38.0,20.0,30.15,SSW,206,7.0,7.0,47,-99.99,,,-99.99,,2013-01-08 18:23:00,
2013-01-08 12:33:00,38.0,20.0,30.15,SW,217,6.0,6.0,48,-99.99,,,-99.99,,2013-01-08 18:33:00,
2013-01-08 12:43:00,38.0,20.0,30.15,SW,217,6.0,6.0,48,-99.99,,,-99.99,,2013-01-08 18:43:00,
2013-01-08 12:53:00,38.0,20.0,30.15,SSW,206,5.0,6.0,47,-99.99,,,-99.99,,2013-01-08 18:53:00,
2013-01-08 13:03:00,39.0,20.0,30.15,SSW,197,5.0,8.0,47,-99.99,,,-99.99,,2013-01-08 19:03:00,
2013-01-08 13:12:00,39.0,20.0,30.15,SSW,197,5.0,8.0,47,-99.99,,,-99.99,,2013-01-08 19:12:00,
2013-01-08 13:22:00,39.0,20.0,30.15,South,191,4.0,5.0,46,-99.99,,,-99.99,,2013-01-08 19:22:00,
2013-01-08 13:32:00,40.0,21.0,30.15,SSW,213,4.0,4.0,46,-99.99,,,-99.99,,2013-01-08 19:32:00,
2013-01-08 13:42:00,40.0,21.0,30.15,SSW,213,4.0,4.0,46,-99.99,,,-99.99,,2013-01-08 19:42:00,
2013-01-08 13:53:00,40.0,21.0,30.12,SSW,196,4.0,6.0,46,-99.99,,,-99.99,,2013-01-08 19:53:00,
2013-01-08 14:02:00,40.0,20.0,30.12,South,176,6.0,6.0,45,-99.99,,,-99.99,,2013-01-08 20:02:00,
2013-01-08 14:12:00,40.0,20.0,30.12,South,176,6.0,6.0,45,-99.99,,,-99.99,,2013-01-08 20:12:00,
2013-01-08 14:22:00,40.0,20.0,30.12,SSE,163,5.0,8.0,45,-99.99,,,-99.99,,2013-01-08 20:22:00,
2013-01-08 14:33:00,41.0,21.0,30.12,SSE,161,4.0,6.0,45,-99.99,,,-99.99,,2013-01-08 20:33:00,
2013-01-08 14:43:00,41.0,21.0,30.12,SSE,161,4.0,6.0,45,-99.99,,,-99.99,,2013-01-08 20:43:00,
2013-01-08 14:53:00,41.0,21.0,30.12,SSW,196,5.0,7.0,45,-99.99,,,-99.99,,2013-01-08 20:53:00,
2013-01-08 15:02:00,42.0,22.0,30.12,South,185,6.0,6.0,44,-99.99,,,-99.99,,2013-01-08 21:02:00,
2013-01-08 15:12:00,42.0,22.0,30.12,South,185,6.0,6.0,44,-99.99,,,-99.99,,2013-01-08 21:12:00,
2013-01-08 15:22:00,42.0,22.0,30.12,SSW,196,6.0,9.0,44,-99.99,,,-99.99,,2013-01-08 21:22:00,
2013-01-08 15:33:00,41.0,21.0,30.12,SSW,194,6.0,6.0,44,-99.99,,,-99.99,,2013-01-08 21:33:00,
2013-01-08 15:43:00,41.0,21.0,30.12,SSW,194,6.0,6.0,44,-99.99,,,-99.99,,2013-01-08 21:43:00,
2013-01-08 15:53:00,40.0,20.0,30.12,South,183,7.0,7.0,45,-99.99,,,-99.99,,2013-01-08 21:53:00,
2013-01-08 16:03:00,40.0,21.0,30.12,SSW,198,5.0,5.0,46,-99.99,,,-99.99,,2013-01-08 22:03:00,
2013-01-08 16:12:00,40.0,21.0,30.12,SSW,198,5.0,5.0,46,-99.99,,,-99.99,,2013-01-08 22:12:00,
2013-01-08 16:22:00,39.0,20.0,30.12,South,170,4.0,4.0,47,-99.99,,,-99.99,,2013-01-08 22:22:00,
2013-01-08 16:32:00,38.0,20.0,30.12,SSE,164,3.0,3.0,48,-99.99,,,-99.99,,2013-01-08 22:32:00,
2013-01-08 16:42:00,38.0,20.0,30.12,SSE,164,3.0,3.0,48,-99.99,,,-99.99,,2013-01-08 22:42:00,
2013-01-08 16:52:00,38.0,21.0,30.09,South,178,4.0,6.0,50,-99.99,,,-99.99,,2013-01-08 22:52:00,
2013-01-08 17:02:00,38.0,22.0,30.09,South,179,5.0,8.0,51,-99.99,,,-99.99,,2013-01-08 23:02:00,
2013-01-08 17:12:00,38.0,22.0,30.09,South,179,5.0,8.0,51,-99.99,,,-99.99,,2013-01-08 23:12:00,
2013-01-08 17:22:00,38.0,22.0,30.09,South,180,5.0,5.0,52,-99.99,,,-99.99,,2013-01-08 23:22:00,
2013-01-08 17:32:00,38.0,22.0,30.09,South,178,4.0,5.0,53,-99.99,,,-99.99,,2013-01-08 23:32:00,
2013-01-08 17:43:00,38.0,22.0,30.09,South,178,4.0,5.0,53,-99.99,,,-99.99,,2013-01-08 23:43:00,
2013-01-08 17:52:00,37.0,22.0,30.09,SSW,193,4.0,4.0,54,-99.99,,,-99.99,,2013-01-08 23:52:00,
2013-01-08 18:02:00,37.0,22.0,30.09,South,186,6.0,6.0,54,-99.99,,,-99.99,,2013-01-09 00:02:00,
2013-01-08 18:12:00,37.0,22.0,30.09,South,186,6.0,6.0,54,-99.99,,,-99.99,,2013-01-09 00:12:00,
2013-01-08 18:22:00,37.0,22.0,30.09,South,187,6.0,6.0,55,-99.99,,,-99.99,,2013-01-09 00:22:00,
2013-01-08 18:33:00,37.0,23.0,30.09,SSW,194,7.0,8.0,56,-99.99,,,-99.99,,2013-01-09 00:33:00,
2013-01-08 18:42:00,37.0,23.0,30.09,SSW,194,7.0,8.0,56,-99.99,,,-99.99,,2013-01-09 00:42:00,
2013-01-08 18:52:00,37.0,23.0,30.09,South,173,6.0,6.0,56,-99.99,,,-99.99,,2013-01-09 00:52:00,
2013-01-08 19:02:00,37.0,23.0,30.09,South,171,8.0,8.0,56,-99.99,,,-99.99,,2013-01-09 01:02:00,
2013-01-08 19:12:00,37.0,23.0,30.09,South,171,8.0,8.0,56,-99.99,,,-99.99,,2013-01-09 01:12:00,
2013-01-08 19:22:00,37.0,23.0,30.09,South,187,7.0,7.0,56,-99.99,,,-99.99,,2013-01-09 01:22:00,
2013-01-08 19:32:00,37.0,23.0,30.09,SSE,153,6.0,8.0,56,-99.99,,,-99.99,,2013-01-09 01:32:00,
2013-01-08 19:42:00,37.0,23.0,30.09,SSE,153,6.0,8.0,56,-99.99,,,-99.99,,2013-01-09 01:42:00,
2013-01-08 19:52:00,37.0,23.0,30.09,South,188,6.0,6.0,56,-99.99,,,-99.99,,2013-01-09 01:52:00,
2013-01-08 20:02:00,37.0,23.0,30.09,South,177,6.0,6.0,56,-99.99,,,-99.99,,2013-01-09 02:02:00,
2013-01-08 20:12:00,37.0,23.0,30.09,South,177,6.0,6.0,56,-99.99,,,-99.99,,2013-01-09 02:12:00,
2013-01-08 20:22:00,37.0,22.0,30.09,SSW,197,7.0,8.0,55,-99.99,,,-99.99,,2013-01-09 02:22:00,
2013-01-08 20:32:00,37.0,22.0,30.09,South,172,9.0,9.0,55,-99.99,,,-99.99,,2013-01-09 02:32:00,
2013-01-08 20:42:00,37.0,22.0,30.09,South,172,9.0,9.0,55,-99.99,,,-99.99,,2013-01-09 02:42:00,
2013-01-08 20:52:00,37.0,22.0,30.06,South,189,7.0,7.0,55,-99.99,,,-99.99,,2013-01-09 02:52:00,
2013-01-08 21:03:00,37.0,22.0,30.06,South,189,8.0,10.0,54,-99.99,,,-99.99,,2013-01-09 03:03:00,
2013-01-08 21:12:00,37.0,22.0,30.06,South,189,8.0,10.0,54,-99.99,,,-99.99,,2013-01-09 03:12:00,
2013-01-08 21:22:00,37.0,22.0,30.09,SSW,212,6.0,8.0,54,-99.99,,,-99.99,,2013-01-09 03:22:00,
2013-01-08 21:33:00,37.0,21.0,30.09,SW,223,10.0,10.0,52,-99.99,,,-99.99,,2013-01-09 03:33:00,
2013-01-08 21:42:00,37.0,21.0,30.09,SW,223,10.0,10.0,52,-99.99,,,-99.99,,2013-01-09 03:42:00,
2013-01-08 21:52:00,37.0,20.0,30.09,SSW,194,10.0,10.0,50,-99.99,,,-99.99,,2013-01-09 03:52:00,
2013-01-08 22:02:00,37.0,20.0,30.09,SW,219,10.0,10.0,49,-99.99,,,-99.99,,2013-01-09 04:02:00,
2013-01-08 22:12:00,37.0,20.0,30.09,SW,219,10.0,10.0,49,-99.99,,,-99.99,,2013-01-09 04:12:00,
2013-01-08 22:22:00,37.0,20.0,30.09,SSW,197,7.0,7.0,50,-99.99,,,-99.99,,2013-01-09 04:22:00,
2013-01-08 22:32:00,37.0,21.0,30.06,SSW,213,10.0,10.0,51,-99.99,,,-99.99,,2013-01-09 04:32:00,
2013-01-08 22:42:00,36.0,21.0,30.06,South,187,11.0,11.0,53,-99.99,,,-99.99,,2013-01-09 04:42:00,
2013-01-08 22:52:00,36.0,21.0,30.06,South,187,11.0,11.0,53,-99.99,,,-99.99,,2013-01-09 04:52:00,
2013-01-08 23:03:00,37.0,21.0,30.06,SSW,194,8.0,11.0,53,-99.99,,,-99.99,,2013-01-09 05:03:00,
2013-01-08 23:12:00,37.0,21.0,30.06,SSW,194,8.0,11.0,53,-99.99,,,-99.99,,2013-01-09 05:12:00,
2013-01-08 23:22:00,37.0,21.0,30.06,South,189,7.0,8.0,53,-99.99,,,-99.99,,2013-01-09 05:22:00,
2013-01-08 23:33:00,37.0,21.0,30.06,SW,225,10.0,10.0,52,-99.99,,,-99.99,,2013-01-09 05:33:00,
2013-01-08 23:42:00,37.0,21.0,30.06,SW,225,10.0,10.0,52,-99.99,,,-99.99,,2013-01-09 05:42:00,
2013-01-08 23:52:00,38.0,22.0,30.03,SSW,196,10.0,10.0,52,-99.99,,,-99.99,,2013-01-09 05:52:00,